Location: Unspecified
(44.6430°N, 0.0000°E)
Time: 20:09:41
(UTC+00:00)

NOSS 3-1 (C) - Visible Passes

Search period start: 04 April 2026 00:00
Search period end: 14 April 2026 00:00
Orbit: 618 x 1583 km, 63.4° (Epoch: 10 January)

Date Brightness Start Highest point End Pass type
(mag) Time Alt. Az. Time Alt. Az. Time Alt. Az.
4 Apr 4.4 00:50:56 10° NNW 00:57:28 58° NE 00:57:28 58° NE visible
4 Apr 5.2 02:41:47 10° NW 02:44:42 25° WNW 02:44:42 25° WNW visible
4 Apr 5.9 20:21:59 10° NW 20:24:58 14° N 20:28:16 10° NNE visible
4 Apr 5.9 22:14:27 10° NNW 22:18:32 17° NNE 22:23:08 10° ENE visible
5 Apr 4.8 00:04:38 10° NNW 00:11:07 42° NE 00:11:41 41° NE visible
5 Apr 4.8 01:55:05 10° NW 01:58:55 35° WNW 01:58:55 35° WNW visible
5 Apr 5.7 19:34:22 10° WNW 19:37:45 17° NNW 19:41:34 10° NNE visible
5 Apr 6.0 21:27:54 10° NNW 21:31:15 15° N 21:34:59 10° NE visible
5 Apr 5.2 23:18:21 10° NNW 23:24:16 31° NE 23:26:05 28° ENE visible
6 Apr 4.5 01:08:35 10° NW 01:13:21 49° NW 01:13:21 49° NW visible
6 Apr 5.9 03:00:28 10° WNW 03:00:37 10° WNW 03:00:37 10° WNW visible
6 Apr 6.0 20:41:02 10° NNW 20:43:56 14° N 20:47:07 10° NNE visible
6 Apr 5.5 22:32:04 10° NNW 22:37:16 24° NNE 22:40:36 18° ENE visible
7 Apr 4.4 00:22:11 10° NW 00:27:53 58° N 00:27:53 58° N visible
7 Apr 5.6 02:13:15 10° NW 02:15:09 18° WNW 02:15:09 18° WNW visible
7 Apr 5.9 19:53:44 10° NW 19:56:37 14° N 19:59:47 10° NNE visible
7 Apr 5.7 21:45:44 10° NNW 21:50:08 19° NNE 21:55:11 10° ENE visible
7 Apr 4.6 23:35:52 10° NNW 23:42:29 48° NE 23:42:29 48° NE visible
8 Apr 5.1 01:26:27 10° NW 01:29:46 29° WNW 01:29:46 29° WNW visible
8 Apr 5.8 19:06:09 10° NW 19:09:21 15° NNW 19:12:55 10° NNE visible
8 Apr 5.9 20:59:16 10° NNW 21:02:54 16° NNE 21:06:58 10° NE visible
8 Apr 5.0 22:49:34 10° NNW 22:55:44 35° NE 22:57:09 33° ENE visible
9 Apr 4.6 00:39:52 10° NW 00:44:26 45° NW 00:44:26 45° NW visible
9 Apr 5.9 20:12:32 10° NNW 20:15:35 14° N 20:18:57 10° NE visible
9 Apr 5.3 22:03:17 10° NNW 22:08:48 26° NNE 22:11:52 21° ENE visible
9 Apr 4.3 23:53:26 10° NW 23:59:10 62° NNW 23:59:10 62° NNW visible
10 Apr 5.7 01:44:48 10° WNW 01:46:27 17° WNW 01:46:27 17° WNW visible
10 Apr 5.9 19:25:25 10° NNW 19:28:15 14° N 19:31:22 10° NNE visible
10 Apr 5.6 21:16:59 10° NNW 21:21:43 20° NNE 21:26:38 12° ENE visible
10 Apr 4.3 23:07:05 10° NNW 23:13:55 56° NE 23:13:55 56° NE visible
11 Apr 5.2 00:57:51 10° NW 01:01:13 28° WNW 01:01:13 28° WNW visible
11 Apr 5.7 20:30:34 10° NNW 20:34:31 17° NNE 20:38:58 10° NE visible
11 Apr 4.8 22:20:46 10° NNW 22:27:10 40° NE 22:28:44 36° ENE visible
12 Apr 4.6 00:11:11 10° NW 00:16:01 46° WNW 00:16:01 46° WNW visible
12 Apr 5.8 19:43:58 10° NNW 19:47:13 14° N 19:50:50 10° NE visible
12 Apr 5.2 21:34:29 10° NNW 21:40:16 30° NE 21:43:34 22° ENE visible
12 Apr 4.1 23:24:41 10° NW 23:30:52 71° NW 23:30:52 71° NW visible
13 Apr 5.8 01:16:25 10° WNW 01:18:10 16° WNW 01:18:10 16° WNW visible
13 Apr 5.4 20:48:11 10° NNW 20:53:15 23° NNE 20:58:25 12° ENE visible
13 Apr 4.1 22:38:17 10° NNW 22:45:16 64° NE 22:45:44 63° ENE visible
